Flag for U.S.A. Weather past 2 weeks in Cupertino, California, U.S.A.

Now
88 °F

Sunny.


Feels Like: 85 °F
Forecast: 59 / 89 °F
Wind: 10 mph from North

Location: Moffett Field

Current Time: Aug 27, 2015 at 2:52:17 PM

Latest Report: Aug 27, 2015 at 1:56 PM


Visibility: 10 mi

Pressure: 30.02 "Hg

Humidity: 26%

Dew point: 49 °F

Location of CupertinoLocation

Historic Weather in Cupertino — Graph

°F

Cupertino temperature yesterday

Maximum temperature yesterday: 83 °F (at 2:56 PM)
Minimum temperature yesterday: 61 °F (at 1:56 AM)
Average temperature yesterday: 69 °F

Past Weeks' High & Low Weather Summary

 TemperatureHumidityPressure
High95 °F (Aug 15, 3:56 PM)90% (Aug 26, 1:56 AM)30.11 "Hg (Aug 26, 1:56 AM)
Low58 °F (Aug 15, 5:56 AM)22% (Aug 16, 2:56 PM)29.80 "Hg (Aug 16, 4:56 PM)
Average70 °F68%29.96 "Hg
* Reported Aug 12 12:56 PM — Aug 27 12:56 PM, Cupertino, Weather by CustomWeather, © 2015

Note: Actual official high and low records may vary slightly from our data, if they occured in-between our weather recording intervals... More about our weather records

Advertising

Cupertino weather history for previous 24 hours

 ConditionsComfort  
Time TempWeatherWind HumidityBarometerVisibility
12:56 PM
Thu, Aug 27
85 °FSunny.9 mph28%30.04 "Hg10 mi
11:56 AM84 °FSunny.9 mph31%30.06 "Hg10 mi
10:56 AM78 °FSunny.3 mph50%30.06 "Hg10 mi
9:56 AM73 °FSunny.3 mph59%30.06 "Hg10 mi
8:56 AM70 °FSunny.6 mph66%30.07 "Hg10 mi
7:56 AM68 °FSunny.No wind73%30.06 "Hg10 mi
6:56 AM65 °FClear.No wind76%30.06 "Hg10 mi
5:56 AM65 °FClear.No wind76%30.04 "Hg10 mi
4:56 AM65 °FClear.No wind73%30.03 "Hg10 mi
3:56 AM65 °FClear.No wind76%30.03 "Hg10 mi
2:56 AM66 °FClear.No wind73%30.03 "Hg10 mi
1:56 AM67 °FClear.No wind68%30.03 "Hg10 mi
12:56 AM68 °FClear.No wind65%30.04 "Hg10 mi
11:56 PM
Wed, Aug 26
67 °FClear.No wind68%30.03 "Hg10 mi
10:56 PM68 °FClear.5 mph65%30.03 "Hg10 mi
9:56 PM69 °FClear.7 mph66%30.03 "Hg10 mi
8:56 PM71 °FClear.8 mph61%30.02 "Hg10 mi
7:56 PM72 °FSunny.9 mph55%30.00 "Hg10 mi
6:56 PM74 °FSunny.13 mph53%29.98 "Hg10 mi
5:56 PM76 °FSunny.14 mph52%29.98 "Hg10 mi
4:56 PM77 °FSunny.12 mph50%29.98 "Hg10 mi
3:56 PM79 °FSunny.9 mph52%29.98 "Hg10 mi
2:56 PM83 °FSunny.12 mph37%29.99 "Hg10 mi
Weather by CustomWeather, © 2015

See weather overviewHow to use our weather pages